This is the latest recevied weather packets stored in our database for station/object OE9FWV-10. If no packets are shown the sender has not sent any weather packets the latest 10 day(s).
| Time | Temp. | Humidity | Pressure | Rain* | Wind** | Luminosity | Snow |
|---|---|---|---|---|---|---|---|
| 1777571852 | 26.67° C | 22% | 1024.5 hPa | - | - | - | - |
| 1777570952 | 27.22° C | 21% | 1024.3 hPa | - | - | - | - |
| 1777570052 | 27.78° C | 20% | 1024.3 hPa | - | - | - | - |
| 1777569152 | 28.33° C | 20% | 1024.2 hPa | - | - | - | - |
| 1777568252 | 28.33° C | 20% | 1024.2 hPa | - | - | - | - |
| 1777567352 | 28.33° C | 19% | 1024.2 hPa | - | - | - | - |
| 1777566452 | 28.33° C | 19% | 1024.1 hPa | - | - | - | - |
| 1777565551 | 28.89° C | 19% | 1024 hPa | - | - | - | - |
| 1777564652 | 28.89° C | 19% | 1023.9 hPa | - | - | - | - |
| 1777563751 | 29.44° C | 18% | 1023.8 hPa | - | - | - | - |
| 1777562851 | 29.44° C | 17% | 1023.8 hPa | - | - | - | - |
| 1777561951 | 30.56° C | 16% | 1023.8 hPa | - | - | - | - |
| 1777561051 | 34.44° C | 13% | 1023.6 hPa | - | - | - | - |
| 1777560151 | 37.22° C | 12% | 1023.6 hPa | - | - | - | - |
| 1777559251 | 37.78° C | 11% | 1023.6 hPa | - | - | - | - |
| 1777558351 | 38.33° C | 11% | 1023.6 hPa | - | - | - | - |
| 1777557451 | 38.89° C | 11% | 1023.7 hPa | - | - | - | - |
| 1777556551 | 38.89° C | 11% | 1023.8 hPa | - | - | - | - |
| 1777555651 | 38.89° C | 11% | 1023.7 hPa | - | - | - | - |
| 1777554751 | 38.89° C | 12% | 1023.9 hPa | - | - | - | - |
| 1777553851 | 38.89° C | 12% | 1024 hPa | - | - | - | - |
| 1777552951 | 38.89° C | 12% | 1024.1 hPa | - | - | - | - |
| 1777552050 | 38.33° C | 12% | 1024.2 hPa | - | - | - | - |
| 1777551150 | 38.33° C | 13% | 1024.4 hPa | - | - | - | - |
| 1777550250 | 37.78° C | 13% | 1024.4 hPa | - | - | - | - |
* Rain since midnight (hover to see other rain measurements)
** Current wind speed in m/s (hover to see current wind gust speed)